Location: �clusier
(49.9361°N, 2.7869°E)
Time: 08:19:39
(UTC+00:00)

NOSS 3-2 (A) - Pass Details

Date: 16 June 2021
Orbit: 774 x 1433 km, 63.4° (Epoch: 17 July)

Event Time Altitude Azimuth Distance (km) Brightness Sun altitude
Rises 21:10:07 0° 241° (WSW) 3,374 6.4 -8.6°
Reaches altitude 10° 21:12:29 10° 247° (WSW) 2,503 5.8 -8.8°
Maximum altitude 21:18:09 53° 324° (NW) 1,161 4.4 -9.4°
Drops below altitude 10° 21:24:48 10° 41° (NE) 2,924 6.2 -10.0°
Sets 21:27:47 0° 46° (NE) 3,992 6.9 -10.2°
